This demonstration page uses our WeatherBlox Daily Observations layout. Learn more.

Left ArrowRight Arrow

Hourly Observations for November 1, 2016

Temp ( °F °C ) Dew Point ( °F °C ) Humidity (%) Winds ( mph kmh ) Pressure ( in mb ) Visibility ( mi km ) Precip ( " mm )
12:53 am 00:53 Clear 58 14.4 54 12.2 87 87 Calm 30.10 1019 10 16 0.00 0.00
1:53 am 01:53 Clear 58 14.4 54 12.2 87 87 Calm 30.11 1020 10 16 0.00 0.00
2:53 am 02:53 Clear 56 13.3 52 11.1 87 87 Calm 30.12 1020 10 16 0.00 0.00
3:53 am 03:53 Clear 55 12.8 52 11.1 90 90 Calm 30.13 1020 10 16 0.00 0.00
4:53 am 04:53 Clear 54 12.2 51 10.6 90 90 Calm 30.14 1021 10 16 0.00 0.00
5:53 am 05:53 Clear 54 12.2 51 10.6 90 90 Calm 30.15 1021 10 16 0.00 0.00
6:53 am 06:53 Clear 53 11.7 50 10 89 89 Calm 30.17 1022 10 16 0.00 0.00
7:53 am 07:53 Clear 52 11.1 50 10 93 93 Calm 30.19 1022 9 14 0.00 0.00
8:53 am 08:53 Sunny 57 13.9 53 11.7 87 87 Calm 30.22 1024 9 14 0.00 0.00
9:53 am 09:53 Sunny 65 18.3 56 13.3 73 73 NNE 3 6 30.24 1024 10 16 0.00 0.00
10:53 am 10:53 Sunny 70 21.1 55 12.8 59 59 E 7 11 30.25 1024 10 16 0.00 0.00
11:53 am 11:53 Sunny 74 23.3 57 13.9 56 56 E 7 11 30.25 1024 10 16 0.00 0.00
12:53 pm 12:53 Sunny 78 25.6 58 14.4 50 50 VRB 6 9 30.24 1024 10 16 0.00 0.00
1:53 pm 13:53 Sunny 79 26.1 57 13.9 47 47 E 8 13 30.21 1023 10 16 0.00 0.00
2:53 pm 14:53 Sunny 81 27.2 53 11.7 38 38 VRB 7 11 30.18 1022 10 16 0.00 0.00
3:53 pm 15:53 Sunny 82 27.8 51 10.6 34 34 SSE 12 19 30.17 1022 10 16 0.00 0.00
4:53 pm 16:53 Sunny 82 27.8 48 8.9 31 31 SSE 10 17 30.17 1022 10 16 0.00 0.00
5:53 pm 17:53 Sunny 80 26.7 50 10 35 35 ESE 6 9 30.17 1022 10 16 0.00 0.00
6:53 pm 18:53 Clear 77 25 52 11.1 42 42 E 3 6 30.18 1022 10 16 0.00 0.00
7:53 pm 19:53 Clear 70 21 57 14 64 64 Calm 30.09 1019 10 16 0.00 0.00
8:53 pm 20:53 Clear 63 17.2 54 12.2 73 73 NNE 3 6 30.22 1023 10 16 0.00 0.00
9:53 pm 21:53 Clear 64 18 N/A N/A Calm 30.23 1024 10 16 0.00 0.00
10:53 pm 22:53 Clear 61 16 N/A N/A Calm 30.25 1024 10 16 0.00 0.00
11:53 pm 23:53 Clear 68 20 N/A N/A SE 3 6 30.25 1024 10 16 0.00 0.00

Powered by AerisWeather